Weather History for Greenville/Spartanburg, SC

Change the Weather History Date:

Friday, April 19, 2013

  Actual Average Record
Temperature  
Mean Temperature 17 °C 16 °C  
Max Temperature 23 °C 23 °C 33 °C (1917)
Min Temperature 10 °C 9 °C 0 °C (2001)
Degree Days  
Heating Degree Days 3 5  
Month to date heating degree days 83 129  
Since 1 July heating degree days 2823 2962  
Cooling Degree Days 0 1  
Month to date cooling degree days 35 19  
Year to date cooling degree days 37 27  
Growing Degree Days 12 (Base 50)    
Moisture  
Dew Point 16 °C    
Average Humidity 85    
Maximum Humidity 96    
Minimum Humidity 73    
Precipitation  
Precipitation 11.68 mm 2.79 mm 3.63 mm (1922)
Month to date precipitation 2.61 2.12  
Year to date precipitation 15.28 14.43  
Snow  
Snow 0.00 cm 0.00 cm 0.00 cm ()
Month to date snowfall 0.0 0.0  
Since 1 July snowfall 2.0 4.7  
Snow Depth 0.00 cm    
Sea Level Pressure  
Sea Level Pressure 1010 hPa    
Wind  
Wind Speed 19 km/h (SSW)    
Max Wind Speed 42 km/h    
Max Gust Speed 58 km/h    
Visibility 14 kilometers    
Events Rain , Thunderstorm    
T = Trace of Precipitation, MM = Missing Value Source: NWS Daily Summary

Daily Weather History Graph

Daily Weather History Graph

Search for Another Location

Airport:

Trip Planner

Search our weather history database for the weather conditions in past years. The results will help you decide how hot, cold, wet, or windy it might be!

Date:

Astronomy

Apr. 19, 2013 Rise Set
Actual Time 6:51 AM EDT 8:04 PM EDT
Civil Twilight 6:25 AM EDT 8:30 PM EDT
Nautical Twilight 5:54 AM EDT 9:02 PM EDT
Astronomical Twilight 5:21 AM EDT 9:34 PM EDT
Moon 2:02 PM EDT (4/19) 2:51 AM EDT (4/19)
Length of Visible Light 14h 05m
Length of Day
13h 12m
First Quarter, 61% of the Moon is Illuminated
Apr 19
First Quarter
Apr 25
Full
May 2
Last Quarter
May 9
New
May 18
First Quarter

Hourly Weather History & Observations

Time (EDT) Temp. Dew Point Humidity Pressure Visibility Wind Dir Wind Speed Gust Speed Precip Events Conditions
12:53 AM 18.9 °C 16.7 °C 87% 1013.8 hPa 16.1 km South 11.1 km/h / 3.1 m/s - N/A   Mostly Cloudy
1:53 AM 18.9 °C 16.1 °C 84% 1012.9 hPa 16.1 km SSE 13.0 km/h / 3.6 m/s - N/A   Scattered Clouds
2:53 AM 18.9 °C 16.7 °C 87% 1012.0 hPa 16.1 km South 16.7 km/h / 4.6 m/s - N/A   Overcast
3:09 AM 19.0 °C 17.0 °C 88% 1012.8 hPa 16.1 km South 14.8 km/h / 4.1 m/s - N/A   Overcast
3:34 AM 19.0 °C 17.0 °C 88% 1012.4 hPa 16.1 km South 13.0 km/h / 3.6 m/s - N/A   Overcast
3:53 AM 18.9 °C 16.7 °C 87% 1011.5 hPa 16.1 km South 14.8 km/h / 4.1 m/s - N/A   Mostly Cloudy
4:12 AM 19.0 °C 17.0 °C 88% 1012.1 hPa 16.1 km South 14.8 km/h / 4.1 m/s - N/A   Overcast
4:53 AM 18.9 °C 17.2 °C 90% 1010.4 hPa 16.1 km South 18.5 km/h / 5.1 m/s 29.6 km/h / 8.2 m/s N/A   Overcast
5:53 AM 18.9 °C 17.2 °C 90% 1010.4 hPa 16.1 km South 16.7 km/h / 4.6 m/s - N/A   Overcast
6:53 AM 18.9 °C 17.2 °C 90% 1010.5 hPa 16.1 km South 18.5 km/h / 5.1 m/s 29.6 km/h / 8.2 m/s N/A   Overcast
7:53 AM 19.4 °C 17.2 °C 87% 1011.2 hPa 16.1 km SSW 18.5 km/h / 5.1 m/s 27.8 km/h / 7.7 m/s N/A   Overcast
8:53 AM 19.4 °C 17.8 °C 90% 1010.5 hPa 16.1 km South 20.4 km/h / 5.7 m/s 35.2 km/h / 9.8 m/s 0.3 mm   Mostly Cloudy
9:09 AM 19.0 °C 18.0 °C 94% 1011.7 hPa 16.1 km SW 22.2 km/h / 6.2 m/s 35.2 km/h / 9.8 m/s 0.0 mm Rain Light Rain
9:19 AM 19.0 °C 18.0 °C 94% 1011.4 hPa 16.1 km SSW 20.4 km/h / 5.7 m/s - 0.0 mm   Overcast
9:53 AM 21.7 °C 17.8 °C 78% 1009.7 hPa 16.1 km South 33.3 km/h / 9.3 m/s 48.2 km/h / 13.4 m/s 0.0 mm   Mostly Cloudy
10:22 AM 21.0 °C 17.0 °C 78% 1010.7 hPa 16.1 km SSW 35.2 km/h / 9.8 m/s 50.0 km/h / 13.9 m/s N/A   Overcast
10:53 AM 22.8 °C 17.8 °C 73% 1009.1 hPa 16.1 km South 27.8 km/h / 7.7 m/s 40.7 km/h / 11.3 m/s N/A   Overcast
11:53 AM 22.2 °C 16.7 °C 71% 1008.3 hPa 16.1 km SSW 31.5 km/h / 8.7 m/s 57.4 km/h / 15.9 m/s 0.0 mm   Overcast
12:53 PM 22.8 °C 17.8 °C 73% 1007.4 hPa 16.1 km South 24.1 km/h / 6.7 m/s 42.6 km/h / 11.8 m/s 0.0 mm Rain Light Rain
1:53 PM 21.1 °C 18.3 °C 84% 1008.2 hPa 9.7 km SSW 25.9 km/h / 7.2 m/s 44.4 km/h / 12.3 m/s 0.5 mm Rain Light Rain
2:06 PM 21.0 °C 18.0 °C 83% 1009.0 hPa 16.1 km SSW 31.5 km/h / 8.7 m/s 48.2 km/h / 13.4 m/s 0.0 mm Rain , Thunderstorm Light Rain
2:30 PM 20.0 °C 18.0 °C 88% 1009.4 hPa 6.4 km WSW 18.5 km/h / 5.1 m/s 37.0 km/h / 10.3 m/s 0.8 mm Rain Rain
2:51 PM 19.0 °C 18.0 °C 94% 1009.4 hPa 6.4 km WSW 18.5 km/h / 5.1 m/s 35.2 km/h / 9.8 m/s 3.0 mm Rain Rain
2:52 PM 19.4 °C 18.3 °C 93% 1008.4 hPa 6.4 km SW 20.4 km/h / 5.7 m/s 35.2 km/h / 9.8 m/s 3.0 mm Rain Rain
3:02 PM 19.0 °C 18.0 °C 94% 1009.0 hPa 6.4 km SW 20.4 km/h / 5.7 m/s - 0.5 mm Rain Rain
3:13 PM 19.0 °C 18.0 °C 94% 1009.4 hPa 6.4 km SW 20.4 km/h / 5.7 m/s - 1.8 mm Rain Heavy Rain
3:24 PM 18.0 °C 18.0 °C 100% 1009.7 hPa 4.8 km SW 31.5 km/h / 8.7 m/s 42.6 km/h / 11.8 m/s 2.8 mm Rain , Thunderstorm Heavy Rain
3:27 PM 18.0 °C 18.0 °C 100% 1009.7 hPa 2.8 km SW 27.8 km/h / 7.7 m/s 46.3 km/h / 12.9 m/s 3.3 mm Rain , Thunderstorm Heavy Rain
3:37 PM 18.0 °C 17.0 °C 94% 1009.7 hPa 4.8 km SW 24.1 km/h / 6.7 m/s 40.7 km/h / 11.3 m/s 4.6 mm Rain , Thunderstorm Rain
3:39 PM 18.0 °C 17.0 °C 94% 1009.7 hPa 4.8 km SW 22.2 km/h / 6.2 m/s 40.7 km/h / 11.3 m/s 4.8 mm Rain Rain
3:46 PM 18.0 °C 17.0 °C 94% 1009.7 hPa 6.4 km SW 22.2 km/h / 6.2 m/s 35.2 km/h / 9.8 m/s 5.3 mm Rain Rain
3:53 PM 17.8 °C 16.7 °C 93% 1009.1 hPa 9.7 km SW 22.2 km/h / 6.2 m/s 33.3 km/h / 9.3 m/s 5.6 mm Rain Light Rain
4:38 PM 16.0 °C 14.0 °C 88% 1009.7 hPa 11.3 km SW 25.9 km/h / 7.2 m/s 37.0 km/h / 10.3 m/s 2.0 mm Rain Light Rain
4:42 PM 16.0 °C 14.0 °C 88% 1009.4 hPa 12.9 km SW 22.2 km/h / 6.2 m/s 37.0 km/h / 10.3 m/s 2.0 mm Rain Light Rain
4:53 PM 15.6 °C 13.9 °C 90% 1008.5 hPa 16.1 km SW 16.7 km/h / 4.6 m/s - 2.0 mm Rain Light Rain
5:53 PM 14.4 °C 12.8 °C 90% 1008.8 hPa 16.1 km SW 27.8 km/h / 7.7 m/s 38.9 km/h / 10.8 m/s 0.0 mm   Mostly Cloudy
6:53 PM 12.8 °C 11.7 °C 93% 1008.3 hPa 16.1 km SSW 20.4 km/h / 5.7 m/s - 0.0 mm Rain Light Rain
7:07 PM 12.0 °C 12.0 °C 100% 1009.0 hPa 16.1 km SSW 18.5 km/h / 5.1 m/s 33.3 km/h / 9.3 m/s 0.3 mm Rain Light Rain
7:22 PM 12.0 °C 11.0 °C 94% 1009.0 hPa 16.1 km SW 22.2 km/h / 6.2 m/s - 0.3 mm Rain Light Rain
7:53 PM 12.2 °C 11.7 °C 97% 1008.7 hPa 16.1 km SW 16.7 km/h / 4.6 m/s - 0.3 mm   Overcast
8:53 PM 11.7 °C 11.1 °C 96% 1009.8 hPa 16.1 km SW 16.7 km/h / 4.6 m/s - N/A   Overcast
9:25 PM 12.0 °C 11.0 °C 94% 1011.1 hPa 16.1 km SW 22.2 km/h / 6.2 m/s 37.0 km/h / 10.3 m/s N/A   Overcast
9:53 PM 11.1 °C 10.0 °C 93% 1011.2 hPa 16.1 km SW 27.8 km/h / 7.7 m/s - N/A   Mostly Cloudy
10:06 PM 11.0 °C 10.0 °C 94% 1012.1 hPa 16.1 km SW 22.2 km/h / 6.2 m/s 37.0 km/h / 10.3 m/s N/A   Scattered Clouds
10:39 PM 11.0 °C 9.0 °C 88% 1013.1 hPa 16.1 km West 11.1 km/h / 3.1 m/s - N/A   Mostly Cloudy
10:53 PM 11.1 °C 9.4 °C 89% 1012.5 hPa 16.1 km West 9.3 km/h / 2.6 m/s - N/A   Mostly Cloudy
11:53 PM 10.6 °C 10.0 °C 96% 1012.9 hPa 16.1 km West 5.6 km/h / 1.5 m/s - N/A   Overcast